Printer-friendly version

IAU Minor Planet Center

Minor Planet Center

MPEC 2006-D23 : 2002 KH3

The following Minor Planet Electronic Circular may be linked-to from your own Web pages, but must not otherwise be redistributed electronically.


Read MPEC 2006-D22 Read MPEC 2006-D24


M.P.E.C. 2006-D23                                Issued 2006 Feb. 22, 18:48 UT

     The Minor Planet Electronic Circulars contain information on unusual
         minor planets and routine data on comets.  They are published
   on behalf of Commission 20 of the International Astronomical Union by the
          Minor Planet Center, Smithsonian Astrophysical Observatory,
                          Cambridge, MA 02138, U.S.A.

                  Supported in part by the Brinson Foundation
                  Supported in part by the TABASGO Foundation
             Prepared using the Tamkin Foundation Computer Network

                              MPC@CFA.HARVARD.EDU
          URL http://cfa-www.harvard.edu/iau/mpc.html  ISSN 1523-6714

                                   2002 KH3

                           Revision to MPEC 2002-K22

Additional Observations:
     K02K03H 2C2004 01 23.30535805 49 35.143+19 43 21.84         23.3 R ED023568
     K02K03H 2C2004 01 23.31293805 49 34.829+19 43 21.44         22.8 R ED023568
     K02K03H  C2006 02 22.32658 10 58 01.37 -10 01 15.2                 ED023291
     K02K03H HC2006 02 22.33743 10 58 00.72 -10 01 12.4                 ED023291

Observer details:
291 LPL/Spacewatch II.  Observer A. S. Descour.  1.8-m f/2.7 reflector + CCD.
568 Mauna Kea.  Observer F. Bernardi.  Measurers D. J. Tholen, F. Bernardi.
    2.24-m reflector + CCD.

First and last observations above in comparison with prediction:
Residuals in seconds of arc, reference and Delta-T
040123 568 10.7+  1.8-    060222 291 95.8+ 45.3-    MPO 50612   -0.12 day

Orbital elements:
2002 KH3                                                 Earth MOID = 0.1499 AU
Epoch 2006 Mar. 6.0 TT = JDT 2453800.5                  MPC
M 299.57700              (2000.0)            P               Q
n   0.22314838     Peri.   34.72227     +0.39958276     +0.89986695
a   2.6919907      Node   259.38916     -0.87620526     +0.31885698
e   0.5773442      Incl.   10.24709     -0.26944010     +0.29760662
P   4.42           H   17.6           G   0.15           U   1
Residuals in seconds of arc
020517 704  1.3+  0.7+    020616 608  1.0-  1.1+    020828 704  0.5-  0.1+
020517 704  0.6+  0.0     020618 611  0.3-  0.4-    020828 704  0.2+  0.1+
020517 704 (2.4+  0.8-)   020618 611  0.2-  0.1+    020828 704  0.3-  0.0
020517 428  0.1+  0.4+    020618 611  0.3-  0.2+    020828 704  0.2+  0.4-
020517 428  0.9-  0.6-    020618 198  0.5-  0.1-    020829 941  1.0-  0.1-
020517 428  0.0   0.1-    020618 198  0.3-  0.3-    020829 941  0.5-  0.1-
020518 734  1.1+  0.4-    020618 198  0.2-  0.5-    020829 941  0.4-  0.3-
020518 704  0.1+  0.3-    020618 198  0.9-  0.6-    020829 941  0.6-  0.1+
020518 734  0.7+  0.7+    020618 198  1.5-  0.8-    020829 941  0.1-  0.6+
020518 704  0.3-  0.1+    020622 413  0.3-  0.2-    020831 056  0.6-  1.2+
020518 704  0.1-  0.1-    020622 413  0.3-  0.2-    020831 056  0.5-  0.9+
020519 176  0.1-  0.1+    020622 413  0.3-  0.2-    020904 118  0.1-  0.1-
020519 176  0.1+  0.0     020623 941  0.7+  0.7+    020904 118  0.1+  0.1-
020519 176  0.3+  0.0     020623 941  0.7-  0.3+    020904 118  0.1+  0.3-
020519 176  0.3+  0.0     020623 941  0.3+  0.6-    020906 952  0.1-  0.6+
020519 952 (2.4+  2.3+)   020623 941  1.9-  0.7-    020906 952  0.4-  0.1-
020519 952  0.1+  0.4+    020623 941 (2.1+  0.8+)   020906 952  0.5+  0.0
020519 952  0.3-  0.3+    020625 611  0.2+  0.8-    020906 952  0.2-  0.4+
020519 651  0.2+  0.2+    020625 611  0.6-  0.5-    020906 952  0.1-  0.2-
020519 651  0.1+  0.3+    020629 176  0.3-  0.1-    020909 938  0.1-  0.4-
020519 651  0.3-  0.1-    020629 176  0.2-  0.1-    020909 938  0.2-  0.3-
020519 704  0.4-  0.5-    020629 176  0.2-  0.1+    020909 938  0.3-  0.1-
020519 704  0.4-  0.6-    020629 176  0.0   0.2+    020909 938  0.7-  0.6-
020519 704  0.4+  1.0-    020629 176  0.2+  0.3+    020909 170  0.9+  0.3-
020519 704  0.1-  0.4-    020704 587  0.3+  0.2-    020909 170  1.5+  0.6-
020519 711  0.4-  0.4+    020704 587  0.8-  0.2-    020909 170  0.5+  0.3+
020519 711  0.0   0.2+    020704 587  0.1+  0.5-    020909 170  0.2+  0.7-
020519 711  1.7-  0.9-    020704 587  0.3-  0.5+    020909 170  0.5+  0.1+
020519 322  2.0+  1.3-    020706 670  0.6-  0.0     020910 056  0.4-  0.7+
020519 322 (4.9+  2.0-)   020706 670  0.1-  0.4-    020910 056  0.1-  0.0
020520 428  0.6-  0.1+    020707 151  0.1-  0.0     020911 240  0.8+  0.2+
020520 428  0.1-  0.6-    020707 151  0.6+  0.4-    020911 240  0.3+  0.1-
020520 428  1.0-  0.5+    020707 151  0.2-  0.2-    020911 240  0.1-  0.3-
020523 704  0.1+  0.8-    020707 151  0.2+  0.0     020912 151  0.0   0.2-
020523 704  1.0+  1.2-    020715 071  1.5+  1.0-    020912 240  0.3+  0.3-
020523 704  0.8+  1.6-    020715 071 (2.3+  0.6-)   020912 151  0.1+  0.0
020523 704  1.3+  1.4-    020715 071  1.9+  0.1-    020912 151  0.1-  0.1-
020523 670  0.0   0.6+    020719 151  0.3+  0.1+    020912 240  0.2+  0.4-
020523 670  0.1+  0.6-    020719 151  0.1+  0.5-    020912 151  0.0   0.2-
020529 649  1.1-  0.6-    020719 151  0.1+  0.5-    020912 240  0.3-  0.3-
020529 649  1.2-  0.8-    020719 151  0.2-  0.2-    020913 642  0.0   0.3+
020529 649  0.8-  0.7-    020719 557  0.3+  0.4+    020913 642  2.0-  0.6-
020605 333  0.2+  0.5-    020719 557  0.4+  0.5-    020913 642  0.3-  0.1+
020605 333  0.2-  0.1-    020720 557  0.2+  0.2-    020915 699  0.7-  1.2+
020605 333  0.2-  0.1+    020720 198  0.3-  0.4-    020915 699  0.1+  0.1-
020605 333  0.0   0.3-    020720 198  0.0   0.2-    020915 699  0.1-  0.1+
020605 333  0.8+  0.2+    020720 198  0.3-  0.2-    020915 699  0.1+  0.2-
020605 333  0.2+  0.5-    020720 198  0.2-  0.2-    020920 644  0.4-  0.4-
020605 413  0.1+  0.0     020720 198  0.2-  0.5-    020920 644  0.3-  0.5-
020605 413  0.1+  0.1-    020721 636  1.5-  0.6-    020920 644  0.2-  0.3-
020605 413  0.0   0.2-    020721 636  2.0+  1.3+    020925 084  0.6-  0.4-
020606 649  0.2+  0.5+    020721 636  0.2+  0.8-    020927 644  0.3-  0.8-
020606 649  0.2+  0.5+    020723 151  1.1+  0.7-    020927 644  0.4-  0.7-
020606 649  0.2+  0.5+    020723 151  0.4-  0.2+    020927 644  0.4-  0.6-
020607 704  0.5-  0.9+    020723 151  0.1+  0.3-    020928 084  0.3-  0.7+
020607 704  0.5-  0.8+    020723 151  0.4+  0.8+    020930 151  0.0   0.1+
020607 704  0.4-  0.9+    020723 151  0.2+  0.3+    020930 151  0.4-  0.2+
020607 704  0.3-  0.6+    020727 151  0.1+  0.0     020930 151  0.3-  0.1+
020607 704  0.1-  0.6+    020727 151  0.4+  0.1-    020930 151  0.2-  0.1+
020609 704  0.4-  0.5+    020727 151  0.1-  0.1+    020930 170  0.4-  1.1+
020609 704  0.5-  0.5+    020727 151  0.3+  0.1+    020930 170  1.2-  0.3+
020609 704  0.5-  0.1-    020727 113  0.7+  0.2-    020930 170  0.2-  0.5+
020610 452  0.9-  0.4+    020727 198  1.0+  0.0     021001 642  0.5+  0.2+
020610 452  0.2-  0.6+    020727 113  0.5+  0.5-    021001 642  1.0+  0.8-
020610 704  0.1-  0.4+    020727 113  0.5+  0.1-    021001 642  0.8+  0.9-
020610 704  1.1+  0.5+    020727 113  0.1-  0.0     021001 587  0.2+  0.1+
020610 704  0.1-  0.3+    020727 198  0.1-  0.4-    021001 587  0.4+  0.2-
020610 704  1.2+  0.8+    020727 113  0.5+  0.4+    021001 587  0.2-  0.1+
020610 704  0.4-  0.3+    020727 198  0.3+  0.5-    021001 587  0.0   0.2+
020610 704  0.3+  1.6+    020727 198  1.1-  0.5-    021003 084  0.1-  0.7+
020610 704  0.3-  0.4+    020727 198  0.2+  0.7-    021005 699  0.3+  0.2-
020610 704  0.5-  0.5+    020728 611  0.1+  0.1-    021005 699  0.2+  0.2+
020610 704  1.3+  0.5+    020728 611  0.0   0.1+    021005 699  0.2+  1.0+
020610 704  1.2+  0.8+    020729 151  0.5+  0.3-    021005 699  0.0   1.1+
020610 670  0.2-  0.2-    020729 151  0.3+  0.2-    021005 084  0.0   0.0
020610 670  0.1-  0.0     020729 151  0.1+  0.2-    021007 704  0.1+  0.6-
020611 699  0.4+  0.1-    020729 151  0.4+  0.1-    021007 704  0.8+  0.1+
020611 699  0.2+  0.5+    020803 859  0.9-  0.4+    021007 704  0.9+  0.5+
020611 699  0.3-  0.4+    020803 859  0.5+  0.1-    021007 704  0.6+  0.6+
020611 699  0.0   0.2+    020814 198  0.3-  0.2-    021007 704  0.3-  0.1-
020613 704  0.0   0.3-    020814 198  0.1+  0.2-    021010 704  0.5+  0.3+
020613 704  0.5-  0.1+    020814 198  0.1+  0.2-    021010 704  0.0   0.1+
020613 704  0.6-  0.0     020814 215  0.3+  0.2-    021010 704  0.4+  0.1+
020613 704  0.7-  0.1+    020815 151  0.3-  0.1-    021010 704  0.3+  0.6+
020613 704  0.7-  0.0     020815 151  0.1-  0.0     021010 704  0.6+  0.0
020614 704  0.8+  0.3+    020815 151  0.2-  0.0     021010 704  0.5+  0.0
020614 704  0.7+  0.4+    020815 151  0.3-  0.1-    021013 084  0.0   0.9+
020614 704  0.9+  0.5+    020816 198  0.2-  0.0     021014 084  1.0+  1.1+
020614 704  0.9+  0.7+    020816 198  0.3-  0.1-    021027 084  0.5-  0.5+
020614 704  1.0+  0.5+    020816 198  0.4-  0.1-    021031 644  0.1-  1.3+
020616 941  0.9-  0.3+    020827 056  0.9-  0.9+    021031 644  0.1-  1.1+
020616 941  0.4-  0.4+    020827 056  0.9+  0.3-    021031 644  0.0   1.4+
020616 941  0.1-  0.6+    020828 704  0.4+  0.0     040123 568  0.1+  0.3+
020616 941  0.5-  0.2+    020828 704  0.4-  0.1-    040123 568  0.0   0.1+
020616 941  0.0   0.8+    020828 704  0.4-  0.3-    060222 291  0.6+  0.6+
020616 608  1.1-  1.5+    020828 704  0.4-  0.2-    060222 291  0.8+  1.5+
020616 608  1.1-  1.4+    020828 704  0.1+  0.2-

Ephemeris:
2002 KH3                 a,e,i = 2.69, 0.58, 10                  q = 1.1378
Date    TT    R. A. (2000) Decl.     Delta      r     Elong.  Phase     V
2006 02 14    11 05.61   -10 17.2    2.003    2.899   149.9     9.8    22.1
2006 02 24    10 56.36   -09 56.2    1.896    2.843   159.2     7.1    21.8
2006 03 06    10 45.73   -09 13.6    1.818    2.785   164.2     5.6    21.6
2006 03 16    10 34.74   -08 12.3    1.769    2.726   160.4     7.0    21.5
2006 03 26    10 24.45   -06 58.1    1.749    2.666   151.1    10.4    21.6
2006 04 05    10 15.89   -05 38.5    1.754    2.604   140.4    14.2    21.7
2006 04 15    10 09.82   -04 21.6    1.781    2.541   129.6    17.7    21.8
2006 04 25    10 06.63   -03 13.5    1.823    2.476   119.3    20.7    21.9
2006 05 05    10 06.44   -02 18.8    1.877    2.411   109.6    23.2    22.0

Kyle E. Smalley              (C) Copyright 2006 MPC           M.P.E.C. 2006-D23

Read MPEC 2006-D22 Read MPEC 2006-D24


Our Web policy. Index to the CBAT/MPC/ICQ pages.


Valid HTML 4.01!